N0OQA Weather Reports


Display with metric or nautical units.
time (UTC)temp
F
wind
direction
speed
MPH
gust
MPH
rain 1hr
in
rain 24hr
in
rain mn
in
humidity
%
barometer
mb
20260508065514 40 0 0.0 0.0 0.00 0.00 0.00 71 1010.2
20260508065014 40 0 0.0 0.0 0.00 0.00 0.00 71 1010.2
20260508064513 40 0 0.0 0.0 0.00 0.00 0.00 70 1010.2
20260508063513 40 0 0.0 0.0 0.00 0.00 0.00 68 1010.3
20260508063013 40 0 0.0 0.0 0.00 0.00 0.00 68 1010.4
20260508062012 40 0 0.0 0.0 0.00 0.00 0.00 68 1010.5
20260508061512 40 0 0.0 0.0 0.00 0.00 0.00 67 1010.5
20260508061012 40 0 0.0 0.0 0.00 0.00 0.00 67 1010.5
20260508060511 41 0 0.0 0.0 0.00 0.00 0.00 67 1010.6
20260508055511 41 0 0.0 0.0 0.00 0.00 0.00 66 1010.6
20260508055010 41 0 0.0 0.0 0.00 0.00 0.00 65 1010.8
20260508054510 41 0 0.0 0.0 0.00 0.00 0.00 65 1010.8
20260508054010 41 0 0.0 0.0 0.00 0.00 0.00 66 1010.8
20260508053510 41 0 0.0 0.0 0.00 0.00 0.00 66 1010.9
20260508053009 41 0 0.0 0.0 0.00 0.00 0.00 67 1011.0
20260508052509 41 0 0.0 0.0 0.00 0.00 0.00 66 1011.0
20260508051508 41 0 0.0 0.0 0.00 0.00 0.00 66 1010.9
20260508051008 41 0 0.0 0.0 0.00 0.00 0.00 66 1010.9
20260508045507 41 0 0.0 0.0 0.00 0.00 0.00 64 1011.0
20260508044507 42 0 0.0 0.0 0.00 0.00 0.00 62 1011.0
20260508044006 42 0 0.0 0.0 0.00 0.00 0.00 62 1011.1
20260508043506 42 0 0.0 0.0 0.00 0.00 0.00 62 1011.1
20260508043006 42 0 0.0 0.0 0.00 0.00 0.00 63 1011.1
20260508042005 43 0 0.0 0.0 0.00 0.00 0.00 59 1011.2
20260508041505 43 0 0.0 0.0 0.00 0.00 0.00 58 1011.2
20260508041005 43 0 0.0 0.0 0.00 0.00 0.00 56 1011.2
20260508040504 43 0 0.0 0.0 0.00 0.00 0.00 56 1011.2
20260508035504 44 0 0.0 0.0 0.00 0.00 0.00 55 1011.3
20260508034503 44 0 0.0 0.0 0.00 0.00 0.00 55 1011.4
20260508034003 44 0 0.0 0.0 0.00 0.00 0.00 53 1011.4
20260508033503 45 0 0.0 0.0 0.00 0.00 0.00 52 1011.4
20260508032502 45 0 0.0 0.0 0.00 0.00 0.00 50 1011.5
20260508032002 45 0 0.0 0.0 0.00 0.00 0.00 50 1011.5
20260508031502 46 0 0.0 0.0 0.00 0.00 0.00 50 1011.5
20260508031001 46 0 0.0 0.0 0.00 0.00 0.00 49 1011.5
20260508030501 46 0 0.0 0.0 0.00 0.00 0.00 48 1011.5
20260508025000 48 0 0.0 0.0 0.00 0.00 0.00 46 1011.4
20260508024500 48 0 0.0 0.0 0.00 0.00 0.00 46 1011.4
20260508023959 48 0 0.0 0.0 0.00 0.00 0.00 44 1011.4
20260508023459 49 0 0.0 0.0 0.00 0.00 0.00 44 1011.3
20260507131913 37 0 0.0 0.0 0.00 0.00 0.00 83 1015.2
20260507131413 37 0 0.0 0.0 0.00 0.00 0.00 86 1015.2
20260507130913 36 0 0.0 0.0 0.00 0.00 0.00 88 1015.2
20260507130412 35 0 0.0 0.0 0.00 0.00 0.00 90 1015.3
20260507125912 35 0 0.0 0.0 0.00 0.00 0.00 91 1015.2
20260507125412 34 0 0.0 0.0 0.00 0.00 0.00 92 1015.3
20260507124912 33 0 0.0 0.0 0.00 0.00 0.00 94 1015.3
20260507124411 32 0 0.0 0.0 0.00 0.00 0.00 95 1015.3
20260507123911 32 0 0.0 0.0 0.00 0.00 0.00 96 1015.3
20260507123411 31 0 0.0 0.0 0.00 0.00 0.00 97 1015.4
20260507122410 30 0 0.0 0.0 0.00 0.00 0.00 95 1012.3
20260507120902 30 0 0.0 0.0 0.00 0.00 0.00 96 1015.2
20260507120401 30 0 0.0 0.0 0.00 0.00 0.00 96 1015.2
20260507115901 30 0 0.0 0.0 0.00 0.00 0.00 96 1015.2
20260507115401 30 0 0.0 0.0 0.00 0.00 0.00 96 1015.3
20260507114901 30 0 0.0 0.0 0.00 0.00 0.00 96 1015.1
20260507114400 30 0 0.0 0.0 0.00 0.00 0.00 95 1015.2
20260507113900 30 0 0.0 0.0 0.00 0.00 0.00 95 1015.2
20260507113400 29 0 0.0 0.0 0.00 0.00 0.00 95 1015.3
20260507112900 29 0 0.0 0.0 0.00 0.00 0.00 94 1015.4
20260507111859 30 0 0.0 0.0 0.00 0.00 0.00 94 1015.4
20260507111359 30 0 0.0 0.0 0.00 0.00 0.00 94 1015.3
20260507110858 30 0 0.0 0.0 0.00 0.00 0.00 94 1015.3
20260507110358 30 0 0.0 0.0 0.00 0.00 0.00 94 1015.2
20260507105357 30 0 0.0 0.0 0.00 0.00 0.00 93 1015.3
20260507104857 30 0 0.0 0.0 0.00 0.00 0.00 93 1015.3
20260507104357 30 0 0.0 0.0 0.00 0.00 0.00 92 1015.3
20260507103857 31 0 0.0 0.0 0.00 0.00 0.00 92 1015.4
20260507103356 31 0 0.0 0.0 0.00 0.00 0.00 92 1015.4
20260507102856 31 0 0.0 0.0 0.00 0.00 0.00 92 1015.4
20260507102356 31 0 0.0 0.0 0.00 0.00 0.00 92 1015.5
20260507101855 32 0 0.0 0.0 0.00 0.00 0.00 92 1015.4
20260507101355 32 0 0.0 0.0 0.00 0.00 0.00 91 1015.4
20260507100855 32 0 0.0 0.0 0.00 0.00 0.00 90 1015.4
20260507100355 33 0 0.0 0.0 0.00 0.00 0.00 90 1015.4
20260507095854 33 0 0.0 0.0 0.00 0.00 0.00 89 1015.4
20260507095354 33 0 0.0 0.0 0.00 0.00 0.00 87 1015.4
20260507094854 34 0 0.0 0.0 0.00 0.00 0.00 86 1015.3
20260507094353 34 0 0.0 0.0 0.00 0.00 0.00 86 1015.3
20260507093853 34 0 0.0 0.0 0.00 0.00 0.00 86 1015.3
20260507093353 34 0 0.0 0.0 0.00 0.00 0.00 86 1015.4
20260507092853 34 0 0.0 0.0 0.00 0.00 0.00 86 1015.4
20260507092352 34 0 0.0 0.0 0.00 0.00 0.00 87 1015.4
20260507091852 34 0 0.0 0.0 0.00 0.00 0.00 87 1015.3
20260507091352 33 0 0.0 0.0 0.00 0.00 0.00 88 1015.3
20260507090851 33 0 0.0 0.0 0.00 0.00 0.00 88 1015.4
20260507090351 33 0 0.0 0.0 0.00 0.00 0.00 89 1015.4
20260507085851 32 0 0.0 0.0 0.00 0.00 0.00 89 1015.4
20260507085350 32 0 0.0 0.0 0.00 0.00 0.00 90 1015.4
20260507084850 32 0 0.0 0.0 0.00 0.00 0.00 90 1015.4
20260507083850 31 0 0.0 0.0 0.00 0.00 0.00 89 1015.4
20260507083349 31 0 0.0 0.0 0.00 0.00 0.00 89 1015.4
20260507082849 31 0 0.0 0.0 0.00 0.00 0.00 89 1015.4
20260507082349 31 0 0.0 0.0 0.00 0.00 0.00 88 1015.4
20260507081848 31 0 0.0 0.0 0.00 0.00 0.00 88 1015.4
20260507081348 31 0 0.0 0.0 0.00 0.00 0.00 88 1015.4
20260507080848 31 0 0.0 0.0 0.00 0.00 0.00 87 1015.4
20260507080348 31 0 0.0 0.0 0.00 0.00 0.00 87 1015.4
20260507075847 31 0 0.0 0.0 0.00 0.00 0.00 86 1015.4
20260507075347 31 0 0.0 0.0 0.00 0.00 0.00 85 1015.3
20260507074847 31 0 0.0 0.0 0.00 0.00 0.00 85 1015.3
20260507074347 31 0 0.0 0.0 0.00 0.00 0.00 84 1015.4
20260507073846 32 0 0.0 0.0 0.00 0.00 0.00 84 1015.4
20260507073346 32 0 0.0 0.0 0.00 0.00 0.00 83 1015.4